Terug naar catalogus

STARLINK-5814

ActiefCommunicatieVLEO
NORAD 55777·PAYLOAD·🇺🇸 United States

Gelanceerd Mar 3, 2023 vanaf Vandenberg Space Force Base

Loading…

Volgende Passages (komende 24 uur)

TLE

VersSource: CelesTrak SupGP

Epoch: Sep 15, 2026, 02:29 UTC

1 55777C 23028AN  26258.10395833 -.00002289  00000+0 -19184-3 0  2587
2 55777  70.0000 106.7583 0002526 276.7800 258.1318 14.98338174    12

Volg STARLINK-5814 in realtime met AllMySat

Download on the App Store